owner,sensor,date,latitude,longitude,vertical_datum,sea_water_practical_salinity,qcFlag 
TCOON,ioos:station:TCOON:079:1,2016-08-01T00:30:00Z,27.8708,-97.5177,0.0,23.6,1111122 
TCOON,ioos:station:TCOON:079:1,2016-08-01T01:30:00Z,27.8708,-97.5177,0.0,19.7,1111122 
TCOON,ioos:station:TCOON:079:1,2016-08-01T02:30:00Z,27.8708,-97.5177,0.0,18.8,1111122 
TCOON,ioos:station:TCOON:079:1,2016-08-01T03:30:00Z,27.8708,-97.5177,0.0,20.7,1111122 
TCOON,ioos:station:TCOON:079:1,2016-08-01T04:30:00Z,27.8708,-97.5177,0.0,21.1,1111122 
TCOON,ioos:station:TCOON:079:1,2016-08-01T05:30:00Z,27.8708,-97.5177,0.0,21.0,1111122 
TCOON,ioos:station:TCOON:079:1,2016-08-01T06:30:00Z,27.8708,-97.5177,0.0,20.4,1111122 
TCOON,ioos:station:TCOON:079:1,2016-08-01T07:30:00Z,27.8708,-97.5177,0.0,21.7,1111122 
TCOON,ioos:station:TCOON:079:1,2016-08-01T08:30:00Z,27.8708,-97.5177,0.0,21.4,1111122 
TCOON,ioos:station:TCOON:079:1,2016-08-01T09:30:00Z,27.8708,-97.5177,0.0,19.8,1111122 
TCOON,ioos:station:TCOON:079:1,2016-08-01T10:30:00Z,27.8708,-97.5177,0.0,19.9,1111122 
TCOON,ioos:station:TCOON:079:1,2016-08-01T11:30:00Z,27.8708,-97.5177,0.0,20.8,1111122 
TCOON,ioos:station:TCOON:079:1,2016-08-01T12:30:00Z,27.8708,-97.5177,0.0,20.6,1111122 
TCOON,ioos:station:TCOON:079:1,2016-08-01T13:30:00Z,27.8708,-97.5177,0.0,22.6,1111122 
TCOON,ioos:station:TCOON:079:1,2016-08-01T14:30:00Z,27.8708,-97.5177,0.0,20.0,1111122 
TCOON,ioos:station:TCOON:079:1,2016-08-01T15:30:00Z,27.8708,-97.5177,0.0,21.0,1111122 
TCOON,ioos:station:TCOON:079:1,2016-08-01T16:30:00Z,27.8708,-97.5177,0.0,19.7,1111122 
TCOON,ioos:station:TCOON:079:1,2016-08-01T17:30:00Z,27.8708,-97.5177,0.0,21.2,1111122 
TCOON,ioos:station:TCOON:079:1,2016-08-01T18:30:00Z,27.8708,-97.5177,0.0,20.3,1111122 
TCOON,ioos:station:TCOON:079:1,2016-08-01T19:30:00Z,27.8708,-97.5177,0.0,20.3,1111122 
TCOON,ioos:station:TCOON:079:1,2016-08-01T20:30:00Z,27.8708,-97.5177,0.0,20.7,1111122 
TCOON,ioos:station:TCOON:079:1,2016-08-01T21:30:00Z,27.8708,-97.5177,0.0,23.5,1111122 
TCOON,ioos:station:TCOON:079:1,2016-08-01T22:30:00Z,27.8708,-97.5177,0.0,22.8,1111122 
TCOON,ioos:station:TCOON:079:1,2016-08-01T23:30:00Z,27.8708,-97.5177,0.0,21.7,1111122 
TCOON,ioos:station:TCOON:079:1,2016-08-02T00:30:00Z,27.8708,-97.5177,0.0,22.2,1111122 
TCOON,ioos:station:TCOON:079:1,2016-08-02T01:30:00Z,27.8708,-97.5177,0.0,20.3,1111122 
TCOON,ioos:station:TCOON:079:1,2016-08-02T02:30:00Z,27.8708,-97.5177,0.0,21.5,1111122 
TCOON,ioos:station:TCOON:079:1,2016-08-02T03:30:00Z,27.8708,-97.5177,0.0,21.1,1111122 
TCOON,ioos:station:TCOON:079:1,2016-08-02T04:30:00Z,27.8708,-97.5177,0.0,20.7,1111122 
TCOON,ioos:station:TCOON:079:1,2016-08-02T05:30:00Z,27.8708,-97.5177,0.0,20.9,1111122 
TCOON,ioos:station:TCOON:079:1,2016-08-02T06:30:00Z,27.8708,-97.5177,0.0,21.2,1111122 
TCOON,ioos:station:TCOON:079:1,2016-08-02T07:30:00Z,27.8708,-97.5177,0.0,19.1,1111122 
TCOON,ioos:station:TCOON:079:1,2016-08-02T08:30:00Z,27.8708,-97.5177,0.0,21.6,1111122 
TCOON,ioos:station:TCOON:079:1,2016-08-02T09:30:00Z,27.8708,-97.5177,0.0,20.9,1111122 
TCOON,ioos:station:TCOON:079:1,2016-08-02T10:30:00Z,27.8708,-97.5177,0.0,20.0,1111122 
TCOON,ioos:station:TCOON:079:1,2016-08-02T11:30:00Z,27.8708,-97.5177,0.0,22.3,1111122 
TCOON,ioos:station:TCOON:079:1,2016-08-02T12:30:00Z,27.8708,-97.5177,0.0,22.7,1111122 
TCOON,ioos:station:TCOON:079:1,2016-08-02T13:30:00Z,27.8708,-97.5177,0.0,21.6,1111122 
TCOON,ioos:station:TCOON:079:1,2016-08-02T14:30:00Z,27.8708,-97.5177,0.0,22.6,1111122 
TCOON,ioos:station:TCOON:079:1,2016-08-02T15:30:00Z,27.8708,-97.5177,0.0,22.3,1111122 
TCOON,ioos:station:TCOON:079:1,2016-08-02T16:30:00Z,27.8708,-97.5177,0.0,21.7,1111122 
TCOON,ioos:station:TCOON:079:1,2016-08-02T17:30:00Z,27.8708,-97.5177,0.0,22.9,1111122 
TCOON,ioos:station:TCOON:079:1,2016-08-02T18:30:00Z,27.8708,-97.5177,0.0,23.0,1111122 
TCOON,ioos:station:TCOON:079:1,2016-08-02T19:30:00Z,27.8708,-97.5177,0.0,22.0,1111122 
TCOON,ioos:station:TCOON:079:1,2016-08-02T20:30:00Z,27.8708,-97.5177,0.0,22.6,1111122 
TCOON,ioos:station:TCOON:079:1,2016-08-02T21:30:00Z,27.8708,-97.5177,0.0,21.4,1111122 
TCOON,ioos:station:TCOON:079:1,2016-08-02T22:30:00Z,27.8708,-97.5177,0.0,22.1,1111122 
TCOON,ioos:station:TCOON:079:1,2016-08-02T23:30:00Z,27.8708,-97.5177,0.0,21.1,1111122 
TCOON,ioos:station:TCOON:079:1,2016-08-03T00:30:00Z,27.8708,-97.5177,0.0,22.0,1111122 
TCOON,ioos:station:TCOON:079:1,2016-08-03T01:30:00Z,27.8708,-97.5177,0.0,23.2,1111122 
TCOON,ioos:station:TCOON:079:1,2016-08-03T02:30:00Z,27.8708,-97.5177,0.0,23.0,1111122 
TCOON,ioos:station:TCOON:079:1,2016-08-03T03:30:00Z,27.8708,-97.5177,0.0,22.4,1111122 
TCOON,ioos:station:TCOON:079:1,2016-08-03T04:30:00Z,27.8708,-97.5177,0.0,20.5,1111122 
TCOON,ioos:station:TCOON:079:1,2016-08-03T05:30:00Z,27.8708,-97.5177,0.0,22.1,1111122 
TCOON,ioos:station:TCOON:079:1,2016-08-03T06:30:00Z,27.8708,-97.5177,0.0,20.5,1111122 
TCOON,ioos:station:TCOON:079:1,2016-08-03T07:30:00Z,27.8708,-97.5177,0.0,21.3,1111122 
TCOON,ioos:station:TCOON:079:1,2016-08-03T08:30:00Z,27.8708,-97.5177,0.0,21.2,1111122 
TCOON,ioos:station:TCOON:079:1,2016-08-03T09:30:00Z,27.8708,-97.5177,0.0,23.4,1111122 
TCOON,ioos:station:TCOON:079:1,2016-08-03T10:30:00Z,27.8708,-97.5177,0.0,18.9,1111122 
TCOON,ioos:station:TCOON:079:1,2016-08-03T11:30:00Z,27.8708,-97.5177,0.0,22.9,1111122 
TCOON,ioos:station:TCOON:079:1,2016-08-03T12:30:00Z,27.8708,-97.5177,0.0,22.1,1111122 
TCOON,ioos:station:TCOON:079:1,2016-08-03T13:30:00Z,27.8708,-97.5177,0.0,22.5,1111122 
TCOON,ioos:station:TCOON:079:1,2016-08-03T14:30:00Z,27.8708,-97.5177,0.0,21.3,1111122 
TCOON,ioos:station:TCOON:079:1,2016-08-03T15:30:00Z,27.8708,-97.5177,0.0,22.9,1111122 
TCOON,ioos:station:TCOON:079:1,2016-08-03T16:30:00Z,27.8708,-97.5177,0.0,21.1,1111122 
TCOON,ioos:station:TCOON:079:1,2016-08-03T17:30:00Z,27.8708,-97.5177,0.0,23.1,1111122 
TCOON,ioos:station:TCOON:079:1,2016-08-03T18:30:00Z,27.8708,-97.5177,0.0,21.1,1111122 
TCOON,ioos:station:TCOON:079:1,2016-08-03T19:30:00Z,27.8708,-97.5177,0.0,21.4,1111122 
TCOON,ioos:station:TCOON:079:1,2016-08-05T20:30:00Z,27.8708,-97.5177,0.0,21.6,1111122 
TCOON,ioos:station:TCOON:079:1,2016-08-05T21:30:00Z,27.8708,-97.5177,0.0,22.9,1111122 
TCOON,ioos:station:TCOON:079:1,2016-08-05T22:30:00Z,27.8708,-97.5177,0.0,24.2,1111122 
TCOON,ioos:station:TCOON:079:1,2016-08-05T23:30:00Z,27.8708,-97.5177,0.0,24.7,1111122 
TCOON,ioos:station:TCOON:079:1,2016-08-06T00:30:00Z,27.8708,-97.5177,0.0,23.8,1111122 
TCOON,ioos:station:TCOON:079:1,2016-08-06T01:30:00Z,27.8708,-97.5177,0.0,23.5,1111122 
TCOON,ioos:station:TCOON:079:1,2016-08-06T02:30:00Z,27.8708,-97.5177,0.0,24.1,1111122 
TCOON,ioos:station:TCOON:079:1,2016-08-06T03:30:00Z,27.8708,-97.5177,0.0,24.9,1111122 
TCOON,ioos:station:TCOON:079:1,2016-08-06T04:30:00Z,27.8708,-97.5177,0.0,22.7,1111122 
TCOON,ioos:station:TCOON:079:1,2016-08-06T05:30:00Z,27.8708,-97.5177,0.0,23.1,1111122 
TCOON,ioos:station:TCOON:079:1,2016-08-06T06:30:00Z,27.8708,-97.5177,0.0,23.4,1111122 
TCOON,ioos:station:TCOON:079:1,2016-08-06T07:30:00Z,27.8708,-97.5177,0.0,21.8,1111122 
TCOON,ioos:station:TCOON:079:1,2016-08-06T08:30:00Z,27.8708,-97.5177,0.0,24.3,1111122 
TCOON,ioos:station:TCOON:079:1,2016-08-06T09:30:00Z,27.8708,-97.5177,0.0,23.0,1111122 
TCOON,ioos:station:TCOON:079:1,2016-08-06T10:30:00Z,27.8708,-97.5177,0.0,22.1,1111122 
TCOON,ioos:station:TCOON:079:1,2016-08-06T11:30:00Z,27.8708,-97.5177,0.0,23.1,1111122 
TCOON,ioos:station:TCOON:079:1,2016-08-06T12:30:00Z,27.8708,-97.5177,0.0,24.4,1111122 
TCOON,ioos:station:TCOON:079:1,2016-08-06T13:30:00Z,27.8708,-97.5177,0.0,24.0,1111122 
TCOON,ioos:station:TCOON:079:1,2016-08-06T14:30:00Z,27.8708,-97.5177,0.0,24.3,1111122 
TCOON,ioos:station:TCOON:079:1,2016-08-06T15:30:00Z,27.8708,-97.5177,0.0,22.0,1111122 
TCOON,ioos:station:TCOON:079:1,2016-08-06T16:30:00Z,27.8708,-97.5177,0.0,21.8,1111122 
TCOON,ioos:station:TCOON:079:1,2016-08-06T17:30:00Z,27.8708,-97.5177,0.0,23.7,1111122 
TCOON,ioos:station:TCOON:079:1,2016-08-06T18:30:00Z,27.8708,-97.5177,0.0,23.8,1111122 
TCOON,ioos:station:TCOON:079:1,2016-08-06T19:30:00Z,27.8708,-97.5177,0.0,25.2,1111122 
TCOON,ioos:station:TCOON:079:1,2016-08-06T20:30:00Z,27.8708,-97.5177,0.0,23.9,1111122 
TCOON,ioos:station:TCOON:079:1,2016-08-06T21:30:00Z,27.8708,-97.5177,0.0,23.9,1111122 
TCOON,ioos:station:TCOON:079:1,2016-08-06T22:30:00Z,27.8708,-97.5177,0.0,25.3,1111122 
TCOON,ioos:station:TCOON:079:1,2016-08-06T23:30:00Z,27.8708,-97.5177,0.0,24.6,1111122 
TCOON,ioos:station:TCOON:079:1,2016-08-07T00:30:00Z,27.8708,-97.5177,0.0,25.1,1111122 
TCOON,ioos:station:TCOON:079:1,2016-08-07T01:30:00Z,27.8708,-97.5177,0.0,22.0,1111122 
TCOON,ioos:station:TCOON:079:1,2016-08-07T02:30:00Z,27.8708,-97.5177,0.0,24.3,1111122 
TCOON,ioos:station:TCOON:079:1,2016-08-07T03:30:00Z,27.8708,-97.5177,0.0,23.2,1111122 
TCOON,ioos:station:TCOON:079:1,2016-08-07T04:30:00Z,27.8708,-97.5177,0.0,24.0,1111122 
TCOON,ioos:station:TCOON:079:1,2016-08-07T05:30:00Z,27.8708,-97.5177,0.0,23.6,1111122 
TCOON,ioos:station:TCOON:079:1,2016-08-07T06:30:00Z,27.8708,-97.5177,0.0,22.8,1111122 
TCOON,ioos:station:TCOON:079:1,2016-08-07T07:30:00Z,27.8708,-97.5177,0.0,23.6,1111122 
TCOON,ioos:station:TCOON:079:1,2016-08-07T08:30:00Z,27.8708,-97.5177,0.0,23.8,1111122 
TCOON,ioos:station:TCOON:079:1,2016-08-07T09:30:00Z,27.8708,-97.5177,0.0,23.7,1111122 
TCOON,ioos:station:TCOON:079:1,2016-08-07T10:30:00Z,27.8708,-97.5177,0.0,23.6,1111122 
TCOON,ioos:station:TCOON:079:1,2016-08-07T11:30:00Z,27.8708,-97.5177,0.0,25.2,1111122 
TCOON,ioos:station:TCOON:079:1,2016-08-07T12:30:00Z,27.8708,-97.5177,0.0,23.5,1111122 
TCOON,ioos:station:TCOON:079:1,2016-08-07T13:30:00Z,27.8708,-97.5177,0.0,23.3,1111122 
TCOON,ioos:station:TCOON:079:1,2016-08-07T14:30:00Z,27.8708,-97.5177,0.0,24.5,1111122 
TCOON,ioos:station:TCOON:079:1,2016-08-07T15:30:00Z,27.8708,-97.5177,0.0,23.2,1111122 
TCOON,ioos:station:TCOON:079:1,2016-08-07T16:30:00Z,27.8708,-97.5177,0.0,24.5,1111122 
TCOON,ioos:station:TCOON:079:1,2016-08-07T17:30:00Z,27.8708,-97.5177,0.0,20.5,1111122 
TCOON,ioos:station:TCOON:079:1,2016-08-07T18:30:00Z,27.8708,-97.5177,0.0,23.9,1111122 
TCOON,ioos:station:TCOON:079:1,2016-08-07T19:30:00Z,27.8708,-97.5177,0.0,24.1,1111122 
TCOON,ioos:station:TCOON:079:1,2016-08-07T21:30:00Z,27.8708,-97.5177,0.0,24.4,1111122 
TCOON,ioos:station:TCOON:079:1,2016-08-07T22:30:00Z,27.8708,-97.5177,0.0,24.5,1111122 
TCOON,ioos:station:TCOON:079:1,2016-08-08T01:30:00Z,27.8708,-97.5177,0.0,24.2,1111122 
TCOON,ioos:station:TCOON:079:1,2016-08-08T02:30:00Z,27.8708,-97.5177,0.0,22.9,1111122 
TCOON,ioos:station:TCOON:079:1,2016-08-08T03:30:00Z,27.8708,-97.5177,0.0,23.6,1111122 
TCOON,ioos:station:TCOON:079:1,2016-08-08T04:30:00Z,27.8708,-97.5177,0.0,24.5,1111122 
TCOON,ioos:station:TCOON:079:1,2016-08-08T05:30:00Z,27.8708,-97.5177,0.0,23.6,1111122 
TCOON,ioos:station:TCOON:079:1,2016-08-08T06:30:00Z,27.8708,-97.5177,0.0,25.3,1111122 
TCOON,ioos:station:TCOON:079:1,2016-08-08T07:30:00Z,27.8708,-97.5177,0.0,25.6,1111122 
TCOON,ioos:station:TCOON:079:1,2016-08-08T08:30:00Z,27.8708,-97.5177,0.0,23.3,1111122 
TCOON,ioos:station:TCOON:079:1,2016-08-08T09:30:00Z,27.8708,-97.5177,0.0,24.4,1111122 
TCOON,ioos:station:TCOON:079:1,2016-08-08T10:30:00Z,27.8708,-97.5177,0.0,24.6,1111122 
TCOON,ioos:station:TCOON:079:1,2016-08-08T11:30:00Z,27.8708,-97.5177,0.0,25.3,1111122 
TCOON,ioos:station:TCOON:079:1,2016-08-08T12:30:00Z,27.8708,-97.5177,0.0,23.0,1111122 
TCOON,ioos:station:TCOON:079:1,2016-08-08T13:30:00Z,27.8708,-97.5177,0.0,23.7,1111122 
TCOON,ioos:station:TCOON:079:1,2016-08-08T14:30:00Z,27.8708,-97.5177,0.0,24.5,1111122 
TCOON,ioos:station:TCOON:079:1,2016-08-08T15:30:00Z,27.8708,-97.5177,0.0,24.1,1111122 
TCOON,ioos:station:TCOON:079:1,2016-08-08T16:30:00Z,27.8708,-97.5177,0.0,24.5,1111122 
TCOON,ioos:station:TCOON:079:1,2016-08-08T17:30:00Z,27.8708,-97.5177,0.0,24.1,1111122 
TCOON,ioos:station:TCOON:079:1,2016-08-08T18:30:00Z,27.8708,-97.5177,0.0,23.2,1111122 
TCOON,ioos:station:TCOON:079:1,2016-08-08T19:30:00Z,27.8708,-97.5177,0.0,25.4,1111122 
TCOON,ioos:station:TCOON:079:1,2016-08-08T20:30:00Z,27.8708,-97.5177,0.0,25.0,1111122 
TCOON,ioos:station:TCOON:079:1,2016-08-08T21:30:00Z,27.8708,-97.5177,0.0,23.8,1111122 
TCOON,ioos:station:TCOON:079:1,2016-08-08T22:30:00Z,27.8708,-97.5177,0.0,22.0,1111122 
TCOON,ioos:station:TCOON:079:1,2016-08-08T23:30:00Z,27.8708,-97.5177,0.0,25.5,1111122 
TCOON,ioos:station:TCOON:079:1,2016-08-09T00:30:00Z,27.8708,-97.5177,0.0,25.4,1111122 
TCOON,ioos:station:TCOON:079:1,2016-08-09T01:30:00Z,27.8708,-97.5177,0.0,24.8,1111122 
TCOON,ioos:station:TCOON:079:1,2016-08-09T02:30:00Z,27.8708,-97.5177,0.0,23.8,1111122 
TCOON,ioos:station:TCOON:079:1,2016-08-09T03:30:00Z,27.8708,-97.5177,0.0,23.6,1111122 
TCOON,ioos:station:TCOON:079:1,2016-08-09T04:30:00Z,27.8708,-97.5177,0.0,24.2,1111122 
TCOON,ioos:station:TCOON:079:1,2016-08-09T05:30:00Z,27.8708,-97.5177,0.0,23.0,1111122 
TCOON,ioos:station:TCOON:079:1,2016-08-09T06:30:00Z,27.8708,-97.5177,0.0,24.5,1111122 
TCOON,ioos:station:TCOON:079:1,2016-08-09T07:30:00Z,27.8708,-97.5177,0.0,24.8,1111122 
TCOON,ioos:station:TCOON:079:1,2016-08-09T08:30:00Z,27.8708,-97.5177,0.0,24.1,1111122 
TCOON,ioos:station:TCOON:079:1,2016-08-09T09:30:00Z,27.8708,-97.5177,0.0,24.5,1111122 
TCOON,ioos:station:TCOON:079:1,2016-08-09T10:30:00Z,27.8708,-97.5177,0.0,22.1,1111122 
TCOON,ioos:station:TCOON:079:1,2016-08-09T11:30:00Z,27.8708,-97.5177,0.0,25.1,1111122 
TCOON,ioos:station:TCOON:079:1,2016-08-09T12:30:00Z,27.8708,-97.5177,0.0,23.2,1111122 
TCOON,ioos:station:TCOON:079:1,2016-08-09T13:30:00Z,27.8708,-97.5177,0.0,25.2,1111122 
TCOON,ioos:station:TCOON:079:1,2016-08-09T14:30:00Z,27.8708,-97.5177,0.0,24.8,1111122 
TCOON,ioos:station:TCOON:079:1,2016-08-09T21:30:00Z,27.8708,-97.5177,0.0,25.6,1111122 
TCOON,ioos:station:TCOON:079:1,2016-08-09T22:30:00Z,27.8708,-97.5177,0.0,24.7,1111122 
TCOON,ioos:station:TCOON:079:1,2016-08-09T23:30:00Z,27.8708,-97.5177,0.0,23.5,1111122 
TCOON,ioos:station:TCOON:079:1,2016-08-10T00:30:00Z,27.8708,-97.5177,0.0,25.3,1111122 
TCOON,ioos:station:TCOON:079:1,2016-08-10T01:30:00Z,27.8708,-97.5177,0.0,25.8,1111122 
TCOON,ioos:station:TCOON:079:1,2016-08-10T02:30:00Z,27.8708,-97.5177,0.0,26.7,1111122 
TCOON,ioos:station:TCOON:079:1,2016-08-10T03:30:00Z,27.8708,-97.5177,0.0,24.5,1111122 
TCOON,ioos:station:TCOON:079:1,2016-08-10T04:30:00Z,27.8708,-97.5177,0.0,25.1,1111122 
TCOON,ioos:station:TCOON:079:1,2016-08-10T05:30:00Z,27.8708,-97.5177,0.0,25.8,1111122 
TCOON,ioos:station:TCOON:079:1,2016-08-10T07:00:00Z,27.8708,-97.5177,0.0,25.4,1111122 
TCOON,ioos:station:TCOON:079:1,2016-08-10T07:30:00Z,27.8708,-97.5177,0.0,25.3,1111122 
TCOON,ioos:station:TCOON:079:1,2016-08-10T09:30:00Z,27.8708,-97.5177,0.0,26.0,1111122 
TCOON,ioos:station:TCOON:079:1,2016-08-10T10:30:00Z,27.8708,-97.5177,0.0,25.0,1111122 
TCOON,ioos:station:TCOON:079:1,2016-08-10T11:30:00Z,27.8708,-97.5177,0.0,24.3,1111122 
TCOON,ioos:station:TCOON:079:1,2016-08-10T12:30:00Z,27.8708,-97.5177,0.0,25.6,1111122 
TCOON,ioos:station:TCOON:079:1,2016-08-10T13:30:00Z,27.8708,-97.5177,0.0,26.6,1111122 
TCOON,ioos:station:TCOON:079:1,2016-08-10T14:30:00Z,27.8708,-97.5177,0.0,25.7,1111122 
TCOON,ioos:station:TCOON:079:1,2016-08-10T15:30:00Z,27.8708,-97.5177,0.0,25.4,1111122 
TCOON,ioos:station:TCOON:079:1,2016-08-10T16:30:00Z,27.8708,-97.5177,0.0,26.7,1111122 
TCOON,ioos:station:TCOON:079:1,2016-08-10T17:30:00Z,27.8708,-97.5177,0.0,26.1,1111122 
TCOON,ioos:station:TCOON:079:1,2016-08-10T18:30:00Z,27.8708,-97.5177,0.0,25.5,1111122 
TCOON,ioos:station:TCOON:079:1,2016-08-10T19:30:00Z,27.8708,-97.5177,0.0,25.8,1111122 
TCOON,ioos:station:TCOON:079:1,2016-08-10T20:30:00Z,27.8708,-97.5177,0.0,27.1,1111122 
TCOON,ioos:station:TCOON:079:1,2016-08-10T21:30:00Z,27.8708,-97.5177,0.0,24.3,1111122 
TCOON,ioos:station:TCOON:079:1,2016-08-10T22:30:00Z,27.8708,-97.5177,0.0,24.5,1111122 
TCOON,ioos:station:TCOON:079:1,2016-08-10T23:30:00Z,27.8708,-97.5177,0.0,25.5,1111122 
TCOON,ioos:station:TCOON:079:1,2016-08-11T00:30:00Z,27.8708,-97.5177,0.0,26.6,1111122 
TCOON,ioos:station:TCOON:079:1,2016-08-11T01:30:00Z,27.8708,-97.5177,0.0,25.1,1111122 
TCOON,ioos:station:TCOON:079:1,2016-08-11T02:30:00Z,27.8708,-97.5177,0.0,25.8,1111122 
TCOON,ioos:station:TCOON:079:1,2016-08-11T03:30:00Z,27.8708,-97.5177,0.0,24.5,1111122 
TCOON,ioos:station:TCOON:079:1,2016-08-11T04:30:00Z,27.8708,-97.5177,0.0,25.3,1111122 
TCOON,ioos:station:TCOON:079:1,2016-08-11T05:30:00Z,27.8708,-97.5177,0.0,26.0,1111122 
TCOON,ioos:station:TCOON:079:1,2016-08-11T06:30:00Z,27.8708,-97.5177,0.0,26.1,1111122 
TCOON,ioos:station:TCOON:079:1,2016-08-11T07:30:00Z,27.8708,-97.5177,0.0,24.1,1111122 
TCOON,ioos:station:TCOON:079:1,2016-08-11T08:30:00Z,27.8708,-97.5177,0.0,25.8,1111122 
TCOON,ioos:station:TCOON:079:1,2016-08-11T09:30:00Z,27.8708,-97.5177,0.0,25.4,1111122 
TCOON,ioos:station:TCOON:079:1,2016-08-11T10:30:00Z,27.8708,-97.5177,0.0,25.6,1111122 
TCOON,ioos:station:TCOON:079:1,2016-08-11T11:30:00Z,27.8708,-97.5177,0.0,26.0,1111122 
TCOON,ioos:station:TCOON:079:1,2016-08-11T12:30:00Z,27.8708,-97.5177,0.0,26.2,1111122 
TCOON,ioos:station:TCOON:079:1,2016-08-11T13:30:00Z,27.8708,-97.5177,0.0,26.3,1111122 
TCOON,ioos:station:TCOON:079:1,2016-08-11T14:30:00Z,27.8708,-97.5177,0.0,26.3,1111122 
TCOON,ioos:station:TCOON:079:1,2016-08-11T15:30:00Z,27.8708,-97.5177,0.0,25.2,1111122 
TCOON,ioos:station:TCOON:079:1,2016-08-11T16:30:00Z,27.8708,-97.5177,0.0,25.7,1111122 
TCOON,ioos:station:TCOON:079:1,2016-08-11T17:30:00Z,27.8708,-97.5177,0.0,25.1,1111122 
TCOON,ioos:station:TCOON:079:1,2016-08-11T18:30:00Z,27.8708,-97.5177,0.0,25.9,1111122 
TCOON,ioos:station:TCOON:079:1,2016-08-11T19:30:00Z,27.8708,-97.5177,0.0,26.0,1111122 
TCOON,ioos:station:TCOON:079:1,2016-08-11T20:30:00Z,27.8708,-97.5177,0.0,25.5,1111122 
TCOON,ioos:station:TCOON:079:1,2016-08-11T21:30:00Z,27.8708,-97.5177,0.0,25.2,1111122 
TCOON,ioos:station:TCOON:079:1,2016-08-11T22:30:00Z,27.8708,-97.5177,0.0,26.1,1111122 
TCOON,ioos:station:TCOON:079:1,2016-08-11T23:30:00Z,27.8708,-97.5177,0.0,25.7,1111122 
TCOON,ioos:station:TCOON:079:1,2016-08-12T01:30:00Z,27.8708,-97.5177,0.0,25.5,1111122 
TCOON,ioos:station:TCOON:079:1,2016-08-12T02:30:00Z,27.8708,-97.5177,0.0,25.7,1111122 
TCOON,ioos:station:TCOON:079:1,2016-08-12T03:30:00Z,27.8708,-97.5177,0.0,26.1,1111122 
TCOON,ioos:station:TCOON:079:1,2016-08-12T04:30:00Z,27.8708,-97.5177,0.0,26.7,1111122 
TCOON,ioos:station:TCOON:079:1,2016-08-12T05:30:00Z,27.8708,-97.5177,0.0,26.2,1111122 
TCOON,ioos:station:TCOON:079:1,2016-08-12T06:30:00Z,27.8708,-97.5177,0.0,25.1,1111122 
TCOON,ioos:station:TCOON:079:1,2016-08-12T07:30:00Z,27.8708,-97.5177,0.0,25.2,1111122 
TCOON,ioos:station:TCOON:079:1,2016-08-12T08:30:00Z,27.8708,-97.5177,0.0,25.4,1111122 
TCOON,ioos:station:TCOON:079:1,2016-08-12T09:30:00Z,27.8708,-97.5177,0.0,24.0,1111122 
TCOON,ioos:station:TCOON:079:1,2016-08-12T10:30:00Z,27.8708,-97.5177,0.0,25.0,1111122 
TCOON,ioos:station:TCOON:079:1,2016-08-12T11:30:00Z,27.8708,-97.5177,0.0,24.9,1111122 
TCOON,ioos:station:TCOON:079:1,2016-08-12T12:30:00Z,27.8708,-97.5177,0.0,26.4,1111122 
TCOON,ioos:station:TCOON:079:1,2016-08-12T13:30:00Z,27.8708,-97.5177,0.0,24.8,1111122 
TCOON,ioos:station:TCOON:079:1,2016-08-12T14:30:00Z,27.8708,-97.5177,0.0,24.0,1111122 
TCOON,ioos:station:TCOON:079:1,2016-08-12T15:30:00Z,27.8708,-97.5177,0.0,24.8,1111122 
TCOON,ioos:station:TCOON:079:1,2016-08-12T16:30:00Z,27.8708,-97.5177,0.0,24.5,1111122 
TCOON,ioos:station:TCOON:079:1,2016-08-12T17:30:00Z,27.8708,-97.5177,0.0,23.9,1111122 
TCOON,ioos:station:TCOON:079:1,2016-08-12T18:30:00Z,27.8708,-97.5177,0.0,24.5,1111122 
TCOON,ioos:station:TCOON:079:1,2016-08-12T19:30:00Z,27.8708,-97.5177,0.0,26.1,1111122 
TCOON,ioos:station:TCOON:079:1,2016-08-12T20:30:00Z,27.8708,-97.5177,0.0,25.7,1111122 
TCOON,ioos:station:TCOON:079:1,2016-08-12T21:30:00Z,27.8708,-97.5177,0.0,26.2,1111122 
TCOON,ioos:station:TCOON:079:1,2016-08-12T22:30:00Z,27.8708,-97.5177,0.0,25.2,1111122 
TCOON,ioos:station:TCOON:079:1,2016-08-12T23:30:00Z,27.8708,-97.5177,0.0,25.5,1111122 
TCOON,ioos:station:TCOON:079:1,2016-08-13T00:30:00Z,27.8708,-97.5177,0.0,25.9,1111122 
TCOON,ioos:station:TCOON:079:1,2016-08-13T01:30:00Z,27.8708,-97.5177,0.0,25.8,1111122 
TCOON,ioos:station:TCOON:079:1,2016-08-13T02:30:00Z,27.8708,-97.5177,0.0,25.1,1111122 
TCOON,ioos:station:TCOON:079:1,2016-08-13T03:30:00Z,27.8708,-97.5177,0.0,26.4,1111122 
TCOON,ioos:station:TCOON:079:1,2016-08-13T04:30:00Z,27.8708,-97.5177,0.0,26.4,1111122 
TCOON,ioos:station:TCOON:079:1,2016-08-13T05:30:00Z,27.8708,-97.5177,0.0,25.5,1111122 
TCOON,ioos:station:TCOON:079:1,2016-08-13T06:30:00Z,27.8708,-97.5177,0.0,24.0,1111122 
TCOON,ioos:station:TCOON:079:1,2016-08-13T07:30:00Z,27.8708,-97.5177,0.0,22.3,1111122 
TCOON,ioos:station:TCOON:079:1,2016-08-13T08:30:00Z,27.8708,-97.5177,0.0,22.7,1111122 
TCOON,ioos:station:TCOON:079:1,2016-08-13T09:30:00Z,27.8708,-97.5177,0.0,24.3,1111122 
TCOON,ioos:station:TCOON:079:1,2016-08-13T10:30:00Z,27.8708,-97.5177,0.0,22.4,1111122 
TCOON,ioos:station:TCOON:079:1,2016-08-13T11:30:00Z,27.8708,-97.5177,0.0,23.0,1111122 
TCOON,ioos:station:TCOON:079:1,2016-08-13T12:30:00Z,27.8708,-97.5177,0.0,23.2,1111122 
TCOON,ioos:station:TCOON:079:1,2016-08-13T13:30:00Z,27.8708,-97.5177,0.0,23.8,1111122 
TCOON,ioos:station:TCOON:079:1,2016-08-13T14:30:00Z,27.8708,-97.5177,0.0,26.4,1111122 
TCOON,ioos:station:TCOON:079:1,2016-08-13T15:30:00Z,27.8708,-97.5177,0.0,26.0,1111122 
TCOON,ioos:station:TCOON:079:1,2016-08-13T16:30:00Z,27.8708,-97.5177,0.0,26.1,1111122 
TCOON,ioos:station:TCOON:079:1,2016-08-13T17:30:00Z,27.8708,-97.5177,0.0,26.3,1111122 
TCOON,ioos:station:TCOON:079:1,2016-08-13T18:30:00Z,27.8708,-97.5177,0.0,25.6,1111122 
TCOON,ioos:station:TCOON:079:1,2016-08-13T19:30:00Z,27.8708,-97.5177,0.0,26.8,1111122 
TCOON,ioos:station:TCOON:079:1,2016-08-13T20:30:00Z,27.8708,-97.5177,0.0,26.6,1111122 
TCOON,ioos:station:TCOON:079:1,2016-08-13T21:30:00Z,27.8708,-97.5177,0.0,26.3,1111122 
TCOON,ioos:station:TCOON:079:1,2016-08-13T22:30:00Z,27.8708,-97.5177,0.0,26.9,1111122 
TCOON,ioos:station:TCOON:079:1,2016-08-13T23:30:00Z,27.8708,-97.5177,0.0,26.2,1111122 
TCOON,ioos:station:TCOON:079:1,2016-08-14T00:30:00Z,27.8708,-97.5177,0.0,23.1,1111122 
TCOON,ioos:station:TCOON:079:1,2016-08-14T01:30:00Z,27.8708,-97.5177,0.0,22.7,1111122 
TCOON,ioos:station:TCOON:079:1,2016-08-14T02:30:00Z,27.8708,-97.5177,0.0,22.1,1111122 
TCOON,ioos:station:TCOON:079:1,2016-08-14T03:30:00Z,27.8708,-97.5177,0.0,20.3,1111122 
TCOON,ioos:station:TCOON:079:1,2016-08-14T04:30:00Z,27.8708,-97.5177,0.0,19.3,1111122 
TCOON,ioos:station:TCOON:079:1,2016-08-14T05:30:00Z,27.8708,-97.5177,0.0,17.6,1111122 
TCOON,ioos:station:TCOON:079:1,2016-08-14T06:30:00Z,27.8708,-97.5177,0.0,16.4,1111122 
TCOON,ioos:station:TCOON:079:1,2016-08-14T07:30:00Z,27.8708,-97.5177,0.0,17.5,1111122 
TCOON,ioos:station:TCOON:079:1,2016-08-14T08:30:00Z,27.8708,-97.5177,0.0,15.8,1111122 
TCOON,ioos:station:TCOON:079:1,2016-08-14T09:30:00Z,27.8708,-97.5177,0.0,15.6,1111122 
TCOON,ioos:station:TCOON:079:1,2016-08-14T10:30:00Z,27.8708,-97.5177,0.0,16.2,1111122 
TCOON,ioos:station:TCOON:079:1,2016-08-14T11:30:00Z,27.8708,-97.5177,0.0,24.0,1111122 
TCOON,ioos:station:TCOON:079:1,2016-08-14T12:30:00Z,27.8708,-97.5177,0.0,25.8,1111122 
TCOON,ioos:station:TCOON:079:1,2016-08-14T13:30:00Z,27.8708,-97.5177,0.0,24.8,1111122 
TCOON,ioos:station:TCOON:079:1,2016-08-14T14:30:00Z,27.8708,-97.5177,0.0,25.2,1111122 
TCOON,ioos:station:TCOON:079:1,2016-08-14T15:30:00Z,27.8708,-97.5177,0.0,25.5,1111122 
TCOON,ioos:station:TCOON:079:1,2016-08-14T16:30:00Z,27.8708,-97.5177,0.0,25.2,1111122 
TCOON,ioos:station:TCOON:079:1,2016-08-14T17:30:00Z,27.8708,-97.5177,0.0,26.2,1111122 
TCOON,ioos:station:TCOON:079:1,2016-08-14T18:30:00Z,27.8708,-97.5177,0.0,25.8,1111122 
TCOON,ioos:station:TCOON:079:1,2016-08-14T19:30:00Z,27.8708,-97.5177,0.0,26.2,1111122 
TCOON,ioos:station:TCOON:079:1,2016-08-14T20:30:00Z,27.8708,-97.5177,0.0,25.5,1111122 